Time,TemperatureF,DewpointF,PressureIn,WindDirection,WindDirectionDegrees,WindSpeedMPH,WindSpeedGustMPH,Humidity,HourlyPrecipIn,Conditions,Clouds,dailyrainin,SolarRadiationWatts/m^2,SoftwareType,DateUTC
2013-11-10 00:06:00,52.2,50.0,30.04,SE,142,0.0,1.0,91,0.00,,,0.00,0,weatherlink.com 1.10,2013-11-10 08:06:00,
2013-11-10 00:21:00,52.0,50.0,30.04,SE,141,1.0,2.0,91,0.00,,,0.00,0,weatherlink.com 1.10,2013-11-10 08:21:00,
2013-11-10 00:36:00,52.0,49.0,30.03,SE,142,0.0,1.0,90,0.00,,,0.00,0,weatherlink.com 1.10,2013-11-10 08:36:00,
2013-11-10 00:51:00,51.5,49.0,30.03,SE,142,0.0,0.0,90,0.00,,,0.00,0,weatherlink.com 1.10,2013-11-10 08:51:00,
2013-11-10 01:07:00,51.2,48.0,30.03,SE,142,0.0,0.0,90,0.00,,,0.00,0,weatherlink.com 1.10,2013-11-10 09:07:00,
2013-11-10 01:22:00,51.0,48.0,30.02,SE,142,0.0,0.0,90,0.00,,,0.00,0,weatherlink.com 1.10,2013-11-10 09:22:00,
2013-11-10 01:37:00,50.6,48.0,30.02,SE,142,0.0,0.0,91,0.00,,,0.00,0,weatherlink.com 1.10,2013-11-10 09:37:00,
2013-11-10 01:52:00,50.6,48.0,30.03,SE,141,0.0,0.0,91,0.00,,,0.00,0,weatherlink.com 1.10,2013-11-10 09:52:00,
2013-11-10 02:07:00,50.8,49.0,30.03,SE,142,0.0,1.0,92,0.00,,,0.00,0,weatherlink.com 1.10,2013-11-10 10:07:00,
2013-11-10 02:22:00,51.9,50.0,30.04,SE,142,0.0,1.0,92,0.00,,,0.00,0,weatherlink.com 1.10,2013-11-10 10:22:00,
2013-11-10 02:37:00,52.5,50.0,30.03,SE,142,1.0,3.0,91,0.00,,,0.00,0,weatherlink.com 1.10,2013-11-10 10:37:00,
2013-11-10 02:52:00,52.7,50.0,30.03,SE,142,1.0,2.0,91,0.00,,,0.00,0,weatherlink.com 1.10,2013-11-10 10:52:00,
2013-11-10 03:07:00,52.6,50.0,30.04,SE,142,0.0,2.0,90,0.00,,,0.00,0,weatherlink.com 1.10,2013-11-10 11:07:00,
2013-11-10 03:22:00,52.1,49.0,30.05,SE,142,0.0,0.0,90,0.00,,,0.00,0,weatherlink.com 1.10,2013-11-10 11:22:00,
2013-11-10 03:37:00,51.9,49.0,30.05,SE,142,1.0,2.0,91,0.00,,,0.00,0,weatherlink.com 1.10,2013-11-10 11:37:00,
2013-11-10 03:52:00,52.0,50.0,30.05,SSE,148,1.0,4.0,92,0.00,,,0.00,0,weatherlink.com 1.10,2013-11-10 11:52:00,
2013-11-10 04:07:00,52.2,50.0,30.05,SE,139,3.0,7.0,92,0.00,,,0.00,0,weatherlink.com 1.10,2013-11-10 12:07:00,
2013-11-10 04:22:00,52.2,50.0,30.06,SE,140,2.0,6.0,92,0.00,,,0.00,0,weatherlink.com 1.10,2013-11-10 12:22:00,
2013-11-10 04:37:00,52.0,50.0,30.06,SSE,150,3.0,5.0,92,0.01,,,0.01,0,weatherlink.com 1.10,2013-11-10 12:37:00,
2013-11-10 04:52:00,52.0,50.0,30.06,SE,132,3.0,5.0,92,0.01,,,0.01,0,weatherlink.com 1.10,2013-11-10 12:52:00,
2013-11-10 05:07:00,52.0,50.0,30.06,SE,139,3.0,4.0,92,0.01,,,0.01,0,weatherlink.com 1.10,2013-11-10 13:07:00,
2013-11-10 05:22:00,52.0,50.0,30.06,SE,140,1.0,4.0,92,0.01,,,0.01,0,weatherlink.com 1.10,2013-11-10 13:22:00,
2013-11-10 05:37:00,52.3,50.0,30.06,SE,142,1.0,4.0,92,0.00,,,0.01,0,weatherlink.com 1.10,2013-11-10 13:37:00,
2013-11-10 05:52:00,52.2,50.0,30.07,SE,142,0.0,2.0,92,0.00,,,0.01,0,weatherlink.com 1.10,2013-11-10 13:52:00,
2013-11-10 06:07:00,51.7,49.0,30.07,SE,142,0.0,0.0,91,0.00,,,0.01,0,weatherlink.com 1.10,2013-11-10 14:07:00,
2013-11-10 06:22:00,51.4,49.0,30.08,SE,142,0.0,1.0,92,0.00,,,0.01,0,weatherlink.com 1.10,2013-11-10 14:22:00,
2013-11-10 06:37:00,50.8,49.0,30.08,SE,142,0.0,0.0,92,0.00,,,0.01,0,weatherlink.com 1.10,2013-11-10 14:37:00,
2013-11-10 06:52:00,50.7,49.0,30.09,SE,142,0.0,0.0,93,0.00,,,0.01,0,weatherlink.com 1.10,2013-11-10 14:52:00,
2013-11-10 07:07:00,50.8,49.0,30.09,SE,142,0.0,0.0,93,0.00,,,0.01,9,weatherlink.com 1.10,2013-11-10 15:07:00,
2013-11-10 07:22:00,51.1,49.0,30.09,SE,142,0.0,0.0,93,0.00,,,0.01,28,weatherlink.com 1.10,2013-11-10 15:22:00,
2013-11-10 07:37:00,51.5,50.0,30.10,SE,142,0.0,0.0,94,0.00,,,0.01,93,weatherlink.com 1.10,2013-11-10 15:37:00,
2013-11-10 07:52:00,51.5,50.0,30.10,ESE,103,0.0,3.0,93,0.00,,,0.01,47,weatherlink.com 1.10,2013-11-10 15:52:00,
2013-11-10 08:07:00,51.5,50.0,30.11,ESE,102,1.0,2.0,93,0.00,,,0.01,47,weatherlink.com 1.10,2013-11-10 16:07:00,
2013-11-10 08:22:00,51.9,50.0,30.11,ESE,102,0.0,2.0,93,0.00,,,0.01,70,weatherlink.com 1.10,2013-11-10 16:22:00,
2013-11-10 08:37:00,52.4,50.0,30.11,ESE,102,0.0,2.0,92,0.00,,,0.01,93,weatherlink.com 1.10,2013-11-10 16:37:00,
2013-11-10 08:52:00,53.1,51.0,30.11,ESE,102,0.0,0.0,93,0.00,,,0.01,104,weatherlink.com 1.10,2013-11-10 16:52:00,
2013-11-10 09:07:00,53.9,51.0,30.11,ESE,102,0.0,1.0,91,0.00,,,0.01,172,weatherlink.com 1.10,2013-11-10 17:07:00,
2013-11-10 09:22:00,54.8,51.0,30.11,ESE,102,0.0,1.0,88,0.00,,,0.01,371,weatherlink.com 1.10,2013-11-10 17:22:00,
2013-11-10 09:38:00,57.6,53.0,30.11,East,91,0.0,2.0,83,0.00,,,0.01,429,weatherlink.com 1.10,2013-11-10 17:38:00,
2013-11-10 09:53:00,60.6,53.0,30.11,East,82,1.0,2.0,76,0.00,,,0.01,457,weatherlink.com 1.10,2013-11-10 17:53:00,
2013-11-10 10:08:00,60.8,52.0,30.11,SSE,164,0.0,3.0,73,0.00,,,0.01,118,weatherlink.com 1.10,2013-11-10 18:08:00,
2013-11-10 10:23:00,61.3,53.0,30.12,SW,214,0.0,3.0,74,0.00,,,0.01,561,weatherlink.com 1.10,2013-11-10 18:23:00,
2013-11-10 10:38:00,59.9,52.0,30.12,SSW,201,0.0,3.0,76,0.00,,,0.01,388,weatherlink.com 1.10,2013-11-10 18:38:00,
2013-11-10 10:53:00,61.0,53.0,30.11,SSW,205,0.0,7.0,74,0.00,,,0.01,552,weatherlink.com 1.10,2013-11-10 18:53:00,
2013-11-10 11:08:00,61.3,53.0,30.12,SW,217,2.0,4.0,73,0.00,,,0.01,582,weatherlink.com 1.10,2013-11-10 19:08:00,
2013-11-10 11:23:00,61.3,52.0,30.12,South,191,1.0,5.0,71,0.00,,,0.01,577,weatherlink.com 1.10,2013-11-10 19:23:00,
2013-11-10 11:38:00,60.1,51.0,30.11,South,179,1.0,6.0,73,0.00,,,0.01,578,weatherlink.com 1.10,2013-11-10 19:38:00,
2013-11-10 11:53:00,60.9,52.0,30.11,SW,223,1.0,4.0,73,0.00,,,0.01,585,weatherlink.com 1.10,2013-11-10 19:53:00,
2013-11-10 12:08:00,61.0,52.0,30.10,SSE,167,1.0,5.0,72,0.00,,,0.01,580,weatherlink.com 1.10,2013-11-10 20:08:00,
2013-11-10 12:23:00,61.9,53.0,30.09,SSW,211,2.0,5.0,72,0.00,,,0.01,573,weatherlink.com 1.10,2013-11-10 20:23:00,
2013-11-10 12:38:00,62.3,53.0,30.08,SW,215,0.0,3.0,71,0.00,,,0.01,577,weatherlink.com 1.10,2013-11-10 20:38:00,
2013-11-10 12:53:00,61.9,52.0,30.07,SW,225,1.0,6.0,69,0.00,,,0.01,563,weatherlink.com 1.10,2013-11-10 20:53:00,
2013-11-10 13:08:00,62.9,52.0,30.07,SSW,194,0.0,5.0,68,0.00,,,0.01,552,weatherlink.com 1.10,2013-11-10 21:08:00,
2013-11-10 13:23:00,63.3,51.0,30.07,South,174,1.0,4.0,65,0.00,,,0.01,529,weatherlink.com 1.10,2013-11-10 21:23:00,
2013-11-10 13:38:00,63.0,51.0,30.07,SSW,204,2.0,5.0,66,0.00,,,0.01,506,weatherlink.com 1.10,2013-11-10 21:38:00,
2013-11-10 13:53:00,63.3,52.0,30.07,SSW,205,3.0,5.0,66,0.00,,,0.01,480,weatherlink.com 1.10,2013-11-10 21:53:00,
2013-11-10 14:08:00,63.4,52.0,30.07,SSE,151,0.0,5.0,66,0.00,,,0.01,452,weatherlink.com 1.10,2013-11-10 22:08:00,
2013-11-10 14:23:00,62.2,51.0,30.07,South,181,4.0,6.0,67,0.00,,,0.01,418,weatherlink.com 1.10,2013-11-10 22:23:00,
2013-11-10 14:38:00,62.0,52.0,30.07,SW,215,3.0,7.0,69,0.00,,,0.01,387,weatherlink.com 1.10,2013-11-10 22:38:00,
2013-11-10 14:53:00,61.4,51.0,30.08,South,170,1.0,7.0,69,0.00,,,0.01,350,weatherlink.com 1.10,2013-11-10 22:53:00,
2013-11-10 15:08:00,60.8,51.0,30.08,SW,216,1.0,6.0,71,0.00,,,0.01,309,weatherlink.com 1.10,2013-11-10 23:08:00,
2013-11-10 15:23:00,60.7,51.0,30.08,SSW,207,2.0,6.0,70,0.00,,,0.01,269,weatherlink.com 1.10,2013-11-10 23:23:00,
2013-11-10 15:38:00,59.8,51.0,30.08,SSE,150,2.0,6.0,72,0.00,,,0.01,216,weatherlink.com 1.10,2013-11-10 23:38:00,
2013-11-10 15:53:00,59.0,51.0,30.07,SSE,150,1.0,5.0,74,0.00,,,0.01,163,weatherlink.com 1.10,2013-11-10 23:53:00,
2013-11-10 16:08:00,58.4,51.0,30.08,SE,144,1.0,5.0,76,0.00,,,0.01,105,weatherlink.com 1.10,2013-11-11 00:08:00,
2013-11-10 16:23:00,57.6,50.0,30.08,SSW,197,2.0,4.0,77,0.00,,,0.01,33,weatherlink.com 1.10,2013-11-11 00:23:00,
2013-11-10 16:38:00,56.7,51.0,30.07,SE,137,6.0,7.0,80,0.00,,,0.01,21,weatherlink.com 1.10,2013-11-11 00:38:00,
2013-11-10 16:53:00,55.8,50.0,30.08,SSE,167,1.0,6.0,82,0.00,,,0.01,9,weatherlink.com 1.10,2013-11-11 00:53:00,
2013-11-10 17:08:00,55.2,50.0,30.08,SE,139,1.0,5.0,83,0.00,,,0.01,0,weatherlink.com 1.10,2013-11-11 01:08:00,
2013-11-10 17:23:00,54.8,50.0,30.08,SE,144,2.0,4.0,84,0.00,,,0.01,0,weatherlink.com 1.10,2013-11-11 01:23:00,
2013-11-10 17:38:00,54.5,50.0,30.08,SE,126,0.0,4.0,84,0.00,,,0.01,0,weatherlink.com 1.10,2013-11-11 01:38:00,
2013-11-10 17:53:00,54.2,50.0,30.09,SE,138,3.0,3.0,85,0.00,,,0.01,0,weatherlink.com 1.10,2013-11-11 01:53:00,
2013-11-10 18:08:00,53.9,50.0,30.09,SSE,153,0.0,2.0,85,0.00,,,0.01,0,weatherlink.com 1.10,2013-11-11 02:08:00,
2013-11-10 18:23:00,53.7,50.0,30.08,SE,132,1.0,3.0,86,0.00,,,0.01,0,weatherlink.com 1.10,2013-11-11 02:23:00,
2013-11-10 18:38:00,53.5,50.0,30.09,SE,137,2.0,3.0,87,0.00,,,0.01,0,weatherlink.com 1.10,2013-11-11 02:38:00,
2013-11-10 18:53:00,53.5,50.0,30.09,SE,139,2.0,5.0,87,0.00,,,0.01,0,weatherlink.com 1.10,2013-11-11 02:53:00,
2013-11-10 19:08:00,53.3,50.0,30.09,SE,140,1.0,4.0,88,0.00,,,0.01,0,weatherlink.com 1.10,2013-11-11 03:08:00,
2013-11-10 19:23:00,53.2,50.0,30.10,SE,144,2.0,5.0,88,0.00,,,0.01,0,weatherlink.com 1.10,2013-11-11 03:23:00,
2013-11-10 19:38:00,53.1,50.0,30.10,SE,140,2.0,4.0,88,0.00,,,0.01,0,weatherlink.com 1.10,2013-11-11 03:38:00,
2013-11-10 19:53:00,53.0,50.0,30.10,SSE,158,3.0,5.0,88,0.00,,,0.01,0,weatherlink.com 1.10,2013-11-11 03:53:00,
2013-11-10 20:08:00,53.0,50.0,30.10,SE,139,2.0,4.0,88,0.00,,,0.01,0,weatherlink.com 1.10,2013-11-11 04:08:00,
2013-11-10 20:23:00,53.0,50.0,30.11,SSE,167,1.0,5.0,88,0.00,,,0.01,0,weatherlink.com 1.10,2013-11-11 04:23:00,
2013-11-10 20:38:00,53.1,50.0,30.11,SE,141,1.0,3.0,88,0.00,,,0.01,0,weatherlink.com 1.10,2013-11-11 04:38:00,
2013-11-10 20:53:00,53.1,50.0,30.11,SSE,165,0.0,2.0,88,0.00,,,0.01,0,weatherlink.com 1.10,2013-11-11 04:53:00,
2013-11-10 21:08:00,53.0,50.0,30.11,SSE,164,0.0,2.0,89,0.00,,,0.01,0,weatherlink.com 1.10,2013-11-11 05:08:00,
2013-11-10 21:23:00,53.0,50.0,30.11,SSE,164,0.0,2.0,89,0.00,,,0.01,0,weatherlink.com 1.10,2013-11-11 05:23:00,
2013-11-10 21:38:00,53.0,50.0,30.12,South,170,0.0,3.0,89,0.00,,,0.01,0,weatherlink.com 1.10,2013-11-11 05:38:00,
2013-11-10 21:53:00,52.9,50.0,30.12,SSW,192,0.0,1.0,89,0.00,,,0.01,0,weatherlink.com 1.10,2013-11-11 05:53:00,
2013-11-10 22:08:00,52.8,50.0,30.11,SSW,192,0.0,2.0,89,0.00,,,0.01,0,weatherlink.com 1.10,2013-11-11 06:08:00,
2013-11-10 22:23:00,52.8,50.0,30.11,SSE,167,0.0,3.0,89,0.00,,,0.01,0,weatherlink.com 1.10,2013-11-11 06:23:00,
2013-11-10 22:38:00,52.8,50.0,30.11,South,178,0.0,2.0,89,0.00,,,0.01,0,weatherlink.com 1.10,2013-11-11 06:38:00,
2013-11-10 22:53:00,52.7,49.0,30.10,South,178,0.0,1.0,88,0.00,,,0.01,0,weatherlink.com 1.10,2013-11-11 06:53:00,
2013-11-10 23:08:00,52.6,49.0,30.11,South,169,0.0,2.0,88,0.00,,,0.01,0,weatherlink.com 1.10,2013-11-11 07:08:00,
2013-11-10 23:23:00,52.0,49.0,30.10,South,169,0.0,0.0,88,0.00,,,0.01,0,weatherlink.com 1.10,2013-11-11 07:23:00,
2013-11-10 23:38:00,50.9,48.0,30.11,South,169,0.0,0.0,89,0.00,,,0.01,0,weatherlink.com 1.10,2013-11-11 07:38:00,
2013-11-10 23:53:00,50.3,47.0,30.11,South,169,0.0,0.0,89,0.00,,,0.01,0,weatherlink.com 1.10,2013-11-11 07:53:00,